CDT,Max TemperatureF,Mean TemperatureF,Min TemperatureF,Max Dew PointF,MeanDew PointF,Min DewpointF,Max Humidity, Mean Humidity, Min Humidity, Max Sea Level PressureIn, Mean Sea Level PressureIn, Min Sea Level PressureIn, Max VisibilityMiles, Mean VisibilityMiles, Min VisibilityMiles, Max Wind SpeedMPH, Mean Wind SpeedMPH, Max Gust SpeedMPH,PrecipitationIn, CloudCover, Events, WindDirDegrees
2013-3-1,26,22,19,23,18,14,100,80,64,30.21,30.16,30.08,10,8,2,20,13,25,0.00,6,Snow,359
2013-3-2,28,20,12,18,9,5,100,61,43,30.21,30.18,30.13,10,10,10,10,7,16,0.00,0,,339
2013-3-3,32,24,17,10,7,1,63,51,38,30.13,30.08,30.05,10,10,10,8,4,,0.00,0,,43
2013-3-4,32,24,17,30,18,7,100,74,55,30.07,30.01,29.95,10,9,3,15,8,22,0.00,6,Snow,87
2013-3-5,32,29,26,32,29,23,100,96,75,30.07,29.91,29.82,10,5,1,20,11,26,0.02,8,Snow,25
2013-3-6,33,30,26,27,23,21,100,78,65,30.29,30.22,30.08,10,10,7,14,9,20,0.00,8,,319
2013-3-7,32,28,23,23,21,18,100,73,64,30.38,30.35,30.28,10,10,10,7,4,,0.00,3,,162
2013-3-8,35,26,17,28,24,18,100,87,69,30.41,30.36,30.23,10,8,0,15,8,17,0.00,0,Fog,133
2013-3-9,37,34,32,37,33,25,100,93,75,30.24,29.98,29.77,10,8,3,20,14,25,0.10,7,Rain-Snow,152
2013-3-10,39,36,33,39,37,34,100,100,100,29.78,29.68,29.59,7,1,0,15,8,20,0.50,8,Fog-Rain-Snow,63
2013-3-11,33,32,32,34,32,30,100,100,93,29.77,29.61,29.55,10,5,0,17,8,23,0.00,8,Fog-Rain-Snow,314
2013-3-12,33,28,23,32,24,18,100,84,64,30.01,29.87,29.77,10,8,1,24,15,32,0.00,7,Snow,266
2013-3-13,32,26,19,23,13,5,93,60,32,30.29,30.21,30.01,10,10,5,17,13,24,0.00,1,Snow,293
2013-3-14,33,26,19,32,23,14,100,87,64,30.29,30.18,30.04,10,9,0,13,7,,0.00,4,Snow,200
2013-3-15,33,32,30,34,32,30,100,99,93,30.03,29.87,29.75,10,4,0,15,8,21,0.08,5,Rain,34
2013-3-16,32,28,24,32,24,19,100,82,64,30.11,29.94,29.75,10,10,7,18,12,22,0.00,8,,355
2013-3-17,33,26,19,25,17,10,93,68,59,30.20,30.10,29.94,10,10,10,16,10,21,0.00,2,,49
2013-3-18,33,26,17,34,25,10,100,91,68,29.94,29.72,29.58,10,6,0,33,11,41,0.10,7,Snow,159
2013-3-19,28,20,12,14,9,5,86,64,47,30.05,29.91,29.75,10,8,2,33,24,39,0.00,3,Snow,266
2013-3-20,23,16,8,9,4,0,79,59,46,30.07,30.04,30.00,10,10,7,22,16,28,0.00,2,Snow,286
2013-3-21,28,19,10,10,7,3,79,59,43,30.04,30.01,29.98,10,10,10,15,9,,0.00,0,,281
2013-3-22,33,25,17,19,13,7,68,57,44,30.05,30.02,29.99,10,10,10,9,5,,0.00,0,,286
2013-3-23,35,30,26,23,19,14,75,60,48,30.10,30.06,30.01,10,10,10,9,3,,0.00,1,,27
2013-3-24,32,31,30,32,28,21,100,91,69,30.03,29.85,29.73,10,8,1,24,12,33,0.00,8,Snow,20
2013-3-25,33,30,28,25,22,19,75,69,60,30.08,29.92,29.79,10,10,10,24,15,31,0.00,8,,342
2013-3-26,41,36,30,23,22,19,69,61,45,30.25,30.18,30.08,10,10,10,10,7,,0.00,6,,308
2013-3-27,41,36,32,27,22,18,80,60,39,30.31,30.28,30.25,10,10,10,10,7,,0.00,6,,275
2013-3-28,44,38,32,23,20,18,60,50,36,30.34,30.30,30.27,10,10,10,9,6,,0.00,2,,297
2013-3-29,48,40,33,27,23,19,60,48,34,30.31,30.26,30.20,10,10,10,7,2,,0.00,2,,106
2013-3-30,51,42,33,43,32,23,100,68,54,30.21,30.00,29.82,10,9,2,21,11,30,0.00,5,Rain,189
2013-3-31,46,39,32,43,33,18,100,79,55,29.91,29.79,29.74,10,8,1,24,13,31,0.00,6,,279